Regional Weather Roundup
Issued by NWS

Home | Current Version | Previous Version | Text Only | Print | Product List | Glossary Off
Versions: 1 2 3 4 5 6 7 8 9 10 11 12 13 14 15 16 17 18 19 20 21 22 23 24 25 26 27 28 29 30 31 32 33 34 35 36 37 38 39 40 41 42 43 44 45 46 47 48 49 50

000
ASUS43 KDTX 221910
RWRMI
MICHIGAN HOURLY REGIONAL WEATHER ROUNDUP
NATIONAL WEATHER SERVICE DETROIT/PONTIAC MI
ISSUED BY NATIONAL WEATHER SERVICE GRAND RAPIDS MI
300 PM EDT SAT JUL 22 2017

NOTE: "FAIR" INDICATES FEW OR NO CLOUDS BELOW 12,000 FEET WITH NO
SIGNIFICANT WEATHER AND/OR OBSTRUCTION TO VISIBILITY.

MIZ047>049-052>055-059>063-066>070-074>076-081>083-222000-
SOUTHEAST LOWER MICHIGAN

CITY           SKY/WX    TMP DP  RH WIND       PRES   REMARKS
ADRIAN         CLOUDY    84  72  67 W10       29.78F
ALMA           CLOUDY    74  70  85 NW6       29.79F
ANN ARBOR      PTSUNNY   84  73  69 W5        29.76F HX  90
BAD AXE        CLOUDY    69  68  96 E5        29.81F FOG
DETROIT CITY   PTSUNNY   85  71  63 NW7       29.76F HX  90
DETROIT        PTSUNNY   87  72  60 W8        29.76F HX  93
FLINT          LGT RAIN  79  71  76 W6        29.76F
GROSSE ILE     PTSUNNY   80  74  81 S10       29.75F
HILLSDALE      PTSUNNY   84  68  58 W10       29.79F
HOWELL         CLOUDY    83  71  66 W8        29.77F

CITY           SKY/WX    TMP DP  RH WIND       PRES   REMARKS
JACKSON        PTSUNNY   83  68  60 NW13      29.78F
LANSING        LGT RAIN  76  70  82 W15G23    29.79R
MASON          CLOUDY    82  70  66 W8        29.78S
MONROE         CLOUDY    82  74  74 SW9       29.76F
MT. CLEMENS    PTSUNNY   79  73  81 SE8       29.75F
PONTIAC        CLOUDY    81  71  71 W6        29.76F
PORT HOPE        N/A     69  67  93 E15       29.80F
PORT HURON     CLOUDY    73  70  88 NE3       29.79S
TRI CITIES     CLOUDY    75  72  90 NW6       29.78F
YPSILANTI      CLOUDY    85  73  67 SW8       29.76F HX  91
$$
MIZ043>046-050>051-056>058-064>065-071>073-077>080-222000-
SOUTHWEST LOWER MICHIGAN

CITY           SKY/WX    TMP DP  RH WIND       PRES   REMARKS
BATTLE CREEK   CLOUDY    80  69  69 NW14      29.82R
BENTON HARBOR  CLOUDY    78  68  71 W10       29.82F
BIG RAPIDS     CLOUDY    73  65  78 NW3       29.80S
COLDWATER      CLOUDY    82  69  64 W12       29.80F
HOLLAND        CLOUDY    74  68  81 W10       29.81S
GRAND RAPIDS   CLOUDY    80  71  74 W14       29.78F
KALAMAZOO      CLOUDY    82  68  62 NW12      29.81S
MARSHALL       CLOUDY    80  70  72 W10       29.80R
MOUNT PLEASANT PTSUNNY   75  68  78 NE7       29.78F
MUSKEGON       CLOUDY    76  71  85 W9        29.79F
STURGIS        CLOUDY    82  70  68 NW7       29.80F
$$
MIZ016>042-222000-
NORTHERN LOWER MICHIGAN

CITY           SKY/WX    TMP DP  RH WIND       PRES   REMARKS
ALPENA         CLOUDY    73  68  84 SE7       29.84S
BEAVER ISLAND  CLOUDY    73  64  73 E5        29.83F
BELLAIRE       CLOUDY    80  64  58 N6        29.80S
CADILLAC       CLOUDY    75  65  71 CALM      29.82F
CHARLEVOIX     CLOUDY    75  66  73 NW7       29.85S
GAYLORD        CLOUDY    77  63  61 NE7       29.83F
HOUGHTON LAKE  CLOUDY    74  63  68 E6        29.82F
MANISTEE       CLOUDY    77  68  73 NW6       29.79F
OSCODA         CLOUDY    69  67  93 E12       29.82F FOG
PELLSTON       CLOUDY    77  63  61 E3        29.83S
TRAVERSE CITY  CLOUDY    76  66  71 N5        29.79F
LUDINGTON      CLOUDY    74  69  84 CALM      29.80S
$$
MIZ007>008-015-222000-
EASTERN UPPER MICHIGAN

CITY           SKY/WX    TMP DP  RH WIND       PRES   REMARKS
KINROSS        CLOUDY    73  61  65 SE7       29.85F
MACKINAC ISLAN CLOUDY    69  64  84 E10       29.84S
NEWBERRY       CLOUDY    73  65  76 SE5       29.83F
S. S. MARIE    PTSUNNY   74  60  61 SE6       29.84F
$$
MIZ004>006-011>014-085-222000-
CENTRAL UPPER MICHIGAN

CITY           SKY/WX    TMP DP  RH WIND       PRES   REMARKS
MANISTIQUE     CLOUDY    70  66  86 E6        29.83R
ESCANABA       CLOUDY    75  65  70 S8        29.82R
MENOMINEE      CLOUDY    76  65  68 S8        29.82F
SAWYER-GWINN   MOSUNNY   79  64  61 S7        29.82F
$$
MIZ001>003-009>011-084-222000-
WESTERN UPPER MICHIGAN

CITY           SKY/WX    TMP DP  RH WIND       PRES   REMARKS
IRON MOUNTAIN  CLOUDY    78  64  61 VRB3      29.81S
HOUGHTON       PTSUNNY   75  62  64 E9        29.81F
COPPER HARBOR    N/A     63  52  67 SE8       29.82F
IRONWOOD       CLOUDY    73  64  73 NW7       29.83S
$$

ABBREVIATIONS USED IN REMARKS
   TC - TEMPERATURE IN CELSIUS
  WCI - WIND CHILL INDEX
   HX - HEAT INDEX
  VSB - VISIBILITY





USA.gov is the U.S. government's official web portal to all federal, state and local government web resources and services.